Regional Weather Roundup
Issued by NWS

Home | Current Version | Previous Version | Text Only | Print | Product List | Glossary Off
Versions: 1 2 3 4 5 6 7 8 9 10 11 12 13 14 15 16 17 18 19 20 21 22 23 24 25 26 27 28 29 30 31 32 33 34 35 36 37 38 39 40 41 42 43 44 45 46 47 48 49 50

000
ASUS43 KLMK 222202
RWRKY
KENTUCKY REGIONAL WEATHER ROUNDUP
NATIONAL WEATHER SERVICE LOUISVILLE KY
600 PM EDT WED MAR 22 2017

NOTE "FAIR" INDICATES FEW OR NO CLOUDS BELOW 12,000 FEET
WITH NO SIGNIFICANT WEATHER AND/OR OBSTRUCTIONS TO VISIBILITY.

KYZ001>023-026-027-061>063-070>075-222300-
WESTERN AND SOUTH CENTRAL KENTUCKY

CITY           SKY/WX    TMP DP  RH WIND       PRES   REMARKS
PADUCAH        SUNNY     55  20  25 NE15      30.32S
HENDERSON      SUNNY     52  18  25 NE12      30.35S
OWENSBORO      SUNNY     53  18  25 N9        30.36S
HOPKINSVILLE   NOT AVBL
BOWLING GREEN  SUNNY     54  16  22 NE15      30.33S
GLASGOW        NOT AVBL
$$

KYZ024-025-028>034-038-045-046-053-222300-
NORTH CENTRAL KENTUCKY

CITY           SKY/WX    TMP DP  RH WIND       PRES   REMARKS
LOUISVILLE/SDF MOSUNNY   50  12  21 NE13      30.39S
LOUISVILLE/LOU SUNNY     49  14  24 E10       30.40S
FORT KNOX      SUNNY     48  14  25 E10       30.35S
$$

KYZ035>037-039>044-047>052-055>060-089>105-222300-
NORTHEAST KENTUCKY

CITY           SKY/WX    TMP DP  RH WIND       PRES   REMARKS
LEXINGTON      SUNNY     46  17  31 NE16G24   30.38S
COVINGTON      SUNNY     42  16  34 NE14      30.43S
FRANKFORT      SUNNY     47  13  25 N9        30.38S
$$

KYZ054-064>069-076>088-106>120-222300-
SOUTHEAST KENTUCKY

CITY           SKY/WX    TMP DP  RH WIND       PRES   REMARKS
JACKSON        SUNNY     48  15  26 NE5       30.33S
LONDON         SUNNY     51  10  19 NE12      30.31S
SOMERSET       SUNNY     48  19  32 N14       30.33S
MIDDLESBORO    SUNNY     56  16  21 NE12      30.28R
MONTICELLO     CLEAR     50  20  30 N20G26    30.33S
$$





USA.gov is the U.S. government's official web portal to all federal, state and local government web resources and services.